GW3733 Weather Reports


time (UTC)temp
F
wind
direction
speed
knots
gust
knots
rain 1hr
in
rain 24hr
in
rain mn
in
humidity
%
barometer
mb
20260507221337 64 226 3.5 5.2 0.00 0.00 0.00 38 1004.5
20260507220832 64 92 1.7 2.6 0.00 0.00 0.00 40 1004.5
20260507220331 63 352 0.9 2.6 0.00 0.00 0.00 39 1004.5
20260507215827 63 318 1.7 2.6 0.00 0.00 0.00 41 1004.5
20260507215324 64 292 3.5 3.5 0.00 0.00 0.00 37 1004.3
20260507214821 63 339 1.7 2.6 0.00 0.00 0.00 46 1004.4
20260507214319 64 2 1.7 1.7 0.00 0.00 0.00 38 1004.4
20260507213813 66 343 3.5 5.2 0.00 0.00 0.00 38 1004.1
20260507213311 66 316 1.7 1.7 0.00 0.00 0.00 36 1004.2
20260507212808 66 345 1.7 1.7 0.00 0.00 0.00 37 1004.0
20260507212306 64 25 0.9 0.9 0.00 0.00 0.00 42 1004.1
20260507211800 65 35 5.2 7.0 0.00 0.00 0.00 36 1003.9
20260507211257 65 340 3.5 3.5 0.00 0.00 0.00 38 1003.9
20260507210754 66 328 1.7 1.7 0.00 0.00 0.00 37 1003.7
20260507210251 65 29 0.9 0.9 0.00 0.00 0.00 38 1003.7
20260507205747 64 295 2.6 2.6 0.00 0.00 0.00 36 1004.1
20260507205244 63 352 1.7 1.7 0.00 0.00 0.00 40 1004.2
20260507204740 64 314 3.5 5.2 0.00 0.00 0.00 40 1004.1
20260507204238 66 345 1.7 2.6 0.00 0.00 0.00 37 1003.9
20260507203736 66 345 2.6 5.2 0.00 0.00 0.00 34 1003.8
20260507203233 65 299 0.9 1.7 0.00 0.00 0.00 37 1004.2
20260507202729 68 307 1.7 1.7 0.00 0.00 0.00 34 1003.9
20260507202225 67 324 3.5 3.5 0.00 0.00 0.00 35 1004.0
20260507201720 67 0 0.9 0.9 0.00 0.00 0.00 37 1004.1
20260507201218 66 146 1.7 2.6 0.00 0.00 0.00 34 1004.2
20260507200714 65 304 1.7 1.7 0.00 0.00 0.00 35 1004.2
20260507200210 67 332 0.0 0.9 0.00 0.00 0.00 34 1004.1
20260507195706 67 336 0.9 0.9 0.00 0.00 0.00 38 1004.1
20260507195203 68 2 1.7 1.7 0.00 0.00 0.00 39 1004.1
20260507194700 67 22 3.5 6.1 0.00 0.00 0.00 37 1004.2
20260507194156 67 339 1.7 2.6 0.00 0.00 0.00 39 1004.2
20260507193653 68 277 1.7 2.6 0.00 0.00 0.00 35 1004.3
20260507193150 68 311 2.6 2.6 0.00 0.00 0.00 36 1004.4
20260507192646 67 333 2.6 2.6 0.00 0.00 0.00 38 1004.2
20260507192143 67 229 3.5 5.2 0.00 0.00 0.00 35 1004.2
20260507191639 67 259 2.6 3.5 0.00 0.00 0.00 34 1004.4
20260507191136 66 305 4.3 5.2 0.00 0.00 0.00 41 1004.4
20260507190633 66 326 0.9 1.7 0.00 0.00 0.00 36 1004.3
20260507190132 67 293 1.7 2.6 0.00 0.00 0.00 36 1004.3
20260507185630 66 1 4.3 5.2 0.00 0.00 0.00 38 1004.3
20260507185126 67 318 1.7 1.7 0.00 0.00 0.00 37 1004.2
20260507184624 67 8 0.9 0.9 0.00 0.00 0.00 45 1004.4
20260507184122 67 338 2.6 2.6 0.00 0.00 0.00 39 1004.5
20260507183618 67 353 0.9 0.9 0.00 0.00 0.00 41 1004.7
20260507183115 65 310 1.7 2.6 0.00 0.00 0.00 44 1004.3
20260507182611 67 334 1.7 2.6 0.00 0.00 0.00 42 1004.5
20260507182107 66 328 0.9 0.9 0.00 0.00 0.00 38 1004.7
20260507181604 66 354 0.9 0.9 0.00 0.00 0.00 45 1004.9
20260507181100 66 15 2.6 2.6 0.00 0.00 0.00 40 1004.7
20260507180558 66 343 0.9 0.9 0.00 0.00 0.00 40 1004.5
20260507180054 65 341 1.7 1.7 0.00 0.00 0.00 44 1004.9
20260507175550 65 350 0.9 0.9 0.00 0.00 0.00 52 1005.0
20260507175048 64 317 0.0 0.9 0.00 0.00 0.00 44 1005.1
20260507174544 63 320 0.9 0.9 0.00 0.00 0.00 42 1005.2
20260507174042 64 48 1.7 1.7 0.00 0.00 0.00 42 1005.7
20260507173539 64 315 2.6 2.6 0.00 0.00 0.00 48 1005.4
20260507173036 63 32 3.5 3.5 0.00 0.00 0.00 43 1005.7
20260507172532 63 332 0.9 1.7 0.00 0.00 0.00 46 1005.6
20260507172029 62 89 2.6 2.6 0.00 0.00 0.00 46 1005.8
20260507171524 63 333 0.9 0.9 0.00 0.00 0.00 43 1005.8
20260507171022 63 308 1.7 2.6 0.00 0.00 0.00 49 1006.0
20260507170519 62 337 1.7 3.5 0.00 0.00 0.00 44 1006.2
20260507170016 62 3 3.5 5.2 0.00 0.00 0.00 45 1006.1
20260507165511 62 331 1.7 2.6 0.00 0.00 0.00 47 1006.4
20260507165008 61 6 1.7 2.6 0.00 0.00 0.00 46 1006.4
20260507164504 61 1 1.7 1.7 0.00 0.00 0.00 46 1006.5
20260507164001 62 236 2.6 2.6 0.00 0.00 0.00 48 1006.5
20260507163458 61 331 0.9 0.9 0.00 0.00 0.00 50 1006.5
20260507162955 61 346 1.7 2.6 0.00 0.00 0.00 49 1006.5
20260507162451 61 322 0.0 0.9 0.00 0.00 0.00 51 1006.7
20260507161948 61 243 0.9 1.7 0.00 0.00 0.00 47 1006.8
20260507161444 61 28 1.7 2.6 0.00 0.00 0.00 47 1006.9
20260507160941 61 282 1.7 1.7 0.00 0.00 0.00 54 1007.0
20260507160437 60 326 0.9 2.6 0.00 0.00 0.00 47 1006.9
20260507155933 60 162 1.7 2.6 0.00 0.00 0.00 47 1007.1
20260507155429 61 6 2.6 5.2 0.00 0.00 0.00 50 1007.2
20260507154926 60 251 1.7 1.7 0.00 0.00 0.00 51 1007.2
20260507154423 59 96 1.7 2.6 0.00 0.00 0.00 47 1007.2
20260507153920 59 313 2.6 3.5 0.00 0.00 0.00 49 1007.4
20260507153417 59 264 1.7 1.7 0.00 0.00 0.00 52 1007.5
20260507152913 58 244 1.7 1.7 0.00 0.00 0.00 50 1007.4
20260507152409 58 353 0.9 0.9 0.00 0.00 0.00 54 1007.2
20260507151905 58 32 3.5 6.1 0.00 0.00 0.00 52 1007.4
20260507151402 58 12 1.7 2.6 0.00 0.00 0.00 50 1007.4
20260507150859 58 358 0.0 0.0 0.00 0.00 0.00 54 1007.5
20260507150356 57 5 0.9 1.7 0.00 0.00 0.00 52 1007.8
20260507145852 58 286 3.5 3.5 0.00 0.00 0.00 55 1007.9
20260507145348 59 333 0.9 0.9 0.00 0.00 0.00 51 1008.2
20260507144845 57 13 0.9 0.9 0.00 0.00 0.00 49 1008.3
20260507144343 57 349 1.7 1.7 0.00 0.00 0.00 55 1008.6
20260507143839 57 321 3.5 3.5 0.00 0.00 0.00 52 1008.5
20260507143336 55 347 0.9 0.9 0.00 0.00 0.00 54 1008.7
20260507142832 56 20 1.7 2.6 0.00 0.00 0.00 54 1008.4
20260507142324 56 11 0.9 0.9 0.00 0.00 0.00 53 1008.4
20260507141821 56 16 0.0 0.0 0.00 0.00 0.00 58 1008.4
20260507141317 54 18 1.7 1.7 0.00 0.00 0.00 59 1008.6
20260507140813 53 358 0.0 0.0 0.00 0.00 0.00 57 1008.6
20260507140310 53 328 1.7 1.7 0.00 0.00 0.00 59 1008.8
20260507135808 53 1 0.9 0.9 0.00 0.00 0.00 60 1008.9
20260507135306 54 343 0.9 0.9 0.00 0.00 0.00 59 1008.9
20260507134802 53 2 0.0 0.9 0.00 0.00 0.00 60 1008.9
20260507134258 53 4 0.9 0.9 0.00 0.00 0.00 59 1009.2
20260507133753 53 352 0.9 1.7 0.00 0.00 0.00 58 1009.0
20260507133250 52 352 0.0 0.9 0.00 0.00 0.00 59 1008.9
20260507132748 52 38 1.7 2.6 0.00 0.00 0.00 59 1009.2
20260507132244 52 357 0.0 0.0 0.00 0.00 0.00 62 1009.2
20260507131741 51 3 0.9 0.9 0.00 0.00 0.00 58 1009.2
20260507131238 51 348 0.9 0.9 0.00 0.00 0.00 57 1009.1
20260507130735 51 344 0.0 1.7 0.00 0.00 0.00 60 1009.2
20260507130233 51 356 1.7 1.7 0.00 0.00 0.00 57 1009.1
20260507125732 51 28 0.9 0.9 0.00 0.00 0.00 62 1009.0
20260507125229 51 350 0.0 0.0 0.00 0.00 0.00 62 1009.2
20260507124726 51 4 0.9 0.9 0.00 0.00 0.00 61 1009.5
20260507124222 51 354 0.0 0.0 0.00 0.00 0.00 59 1009.5
20260507123721 51 329 0.9 0.9 0.00 0.00 0.00 58 1009.3
20260507123218 51 352 0.9 1.7 0.00 0.00 0.00 59 1009.3
20260507122713 51 311 2.6 3.5 0.00 0.00 0.00 60 1009.2
20260507122209 51 6 0.0 0.0 0.00 0.00 0.00 61 1009.2
20260507121705 51 5 0.0 0.0 0.00 0.00 0.00 60 1009.1
20260507121201 51 338 0.0 0.0 0.00 0.00 0.00 63 1009.0
20260507120657 51 355 0.0 0.0 0.00 0.00 0.00 62 1009.0
20260507120155 51 341 0.0 0.0 0.00 0.00 0.00 65 1009.1
20260507115651 50 2 0.0 0.0 0.00 0.00 0.00 66 1009.0
20260507115146 50 3 0.0 0.9 0.00 0.00 0.00 64 1009.0
20260507114643 50 356 0.0 0.0 0.00 0.00 0.00 70 1009.0
20260507114140 50 351 0.0 0.0 0.00 0.00 0.00 70 1009.0
20260507113637 50 5 0.0 0.0 0.00 0.00 0.00 71 1009.0
20260507113134 50 355 0.0 0.0 0.00 0.00 0.00 68 1008.9
20260507112632 50 7 0.9 0.9 0.00 0.00 0.00 70 1009.0
20260507112128 50 344 0.0 0.0 0.00 0.00 0.00 70 1008.8
20260507111626 50 10 0.0 0.0 0.00 0.00 0.00 72 1008.8
20260507111122 49 352 0.0 0.0 0.00 0.00 0.00 74 1008.5
20260507110618 49 0 0.0 0.0 0.00 0.00 0.00 78 1008.8
20260507110115 49 3 0.0 0.0 0.00 0.00 0.00 80 1008.6
20260507105612 49 8 0.0 0.0 0.00 0.00 0.00 78 1008.7
20260507105108 49 359 0.0 0.0 0.00 0.00 0.00 78 1008.5
20260507104606 49 356 0.0 0.0 0.00 0.00 0.00 80 1008.6
20260507104101 49 351 0.0 0.0 0.00 0.00 0.00 81 1008.6
20260507103558 49 1 0.0 0.0 0.00 0.00 0.00 82 1008.3
20260507103054 49 2 0.0 0.0 0.00 0.00 0.00 81 1008.4
20260507102551 49 4 0.0 0.0 0.00 0.00 0.00 76 1008.4
20260507102047 49 2 0.0 0.0 0.00 0.00 0.00 77 1008.1
20260507101542 50 354 0.0 0.0 0.00 0.00 0.00 77 1008.0
20260507101039 50 358 0.0 0.0 0.00 0.00 0.00 77 1007.9
20260507100536 50 357 0.0 0.0 0.00 0.00 0.00 77 1007.8
20260507100035 50 355 0.0 0.0 0.00 0.00 0.00 74 1008.0
20260507095532 50 338 1.7 1.7 0.00 0.00 0.00 73 1007.9
20260507095029 50 341 0.0 0.9 0.00 0.00 0.00 76 1008.0
20260507094525 50 352 0.0 0.0 0.00 0.00 0.00 77 1007.9
20260507094022 50 341 0.9 0.9 0.00 0.00 0.00 76 1007.9
20260507093519 50 0 0.0 0.0 0.00 0.00 0.00 77 1007.8
20260507093018 50 356 0.0 0.0 0.00 0.00 0.00 78 1007.6
20260507092514 50 354 0.0 0.0 0.00 0.00 0.00 77 1007.5
20260507092011 50 352 0.0 0.9 0.00 0.00 0.00 78 1007.6
20260507091508 51 357 0.0 0.0 0.00 0.00 0.00 77 1007.5
20260507091004 51 359 0.9 0.9 0.00 0.00 0.00 79 1007.6
20260507090459 51 347 1.7 1.7 0.00 0.00 0.00 78 1007.8
20260507085956 51 339 1.7 1.7 0.00 0.00 0.00 80 1007.9
20260507085453 51 339 1.7 1.7 0.00 0.00 0.00 80 1007.8
20260507084950 51 3 0.0 0.9 0.00 0.00 0.00 82 1008.0
20260507084447 51 315 0.9 1.7 0.00 0.00 0.00 81 1007.6
20260507083944 51 343 0.9 0.9 0.00 0.00 0.00 84 1008.0
20260507083440 51 358 0.0 0.0 0.00 0.00 0.00 84 1008.2
20260507082936 51 5 0.0 0.0 0.00 0.00 0.00 87 1007.8
20260507082432 51 1 0.0 0.0 0.00 0.00 0.00 86 1007.5
20260507081930 51 4 0.0 0.0 0.00 0.00 0.00 86 1007.6
20260507081426 51 6 0.0 0.0 0.00 0.00 0.00 86 1007.9
20260507080923 51 11 0.0 0.9 0.00 0.00 0.00 85 1007.5
20260507080419 51 359 0.0 0.9 0.00 0.00 0.00 86 1007.8
20260507075914 51 324 1.7 2.6 0.00 0.00 0.00 86 1007.6
20260507075410 51 346 0.0 0.0 0.00 0.00 0.00 85 1007.6
20260507074907 51 346 0.9 0.9 0.00 0.00 0.00 86 1007.4
20260507074404 51 351 0.0 0.0 0.00 0.00 0.00 85 1007.5
20260507073902 51 357 0.0 0.0 0.00 0.00 0.00 89 1007.4
20260507073358 51 356 0.0 0.0 0.00 0.00 0.00 88 1007.2
20260507072855 51 356 0.0 0.0 0.00 0.00 0.00 87 1007.3
20260507072352 51 348 0.0 0.0 0.00 0.00 0.00 87 1007.3
20260507071850 51 210 0.9 1.7 0.00 0.00 0.00 89 1007.3
20260507071347 51 327 0.9 0.9 0.00 0.00 0.00 88 1007.5
20260507070843 51 3 0.0 0.0 0.00 0.00 0.00 88 1007.0
20260507070340 51 1 0.0 0.0 0.00 0.00 0.00 87 1007.4
20260507065837 51 357 0.0 0.0 0.00 0.00 0.00 86 1007.3
20260507065334 52 340 0.0 0.0 0.00 0.00 0.00 84 1007.3
20260507064831 51 13 0.0 0.0 0.00 0.00 0.00 84 1007.4
20260507064329 51 12 0.0 0.0 0.00 0.00 0.00 87 1007.2
20260507063827 51 357 0.0 0.0 0.00 0.00 0.00 88 1007.5
20260507063324 52 47 0.9 0.9 0.00 0.00 0.00 87 1007.9
20260507062820 51 19 0.0 0.0 0.00 0.00 0.00 84 1007.9
20260507062317 52 358 0.0 0.0 0.00 0.00 0.00 84 1008.0
20260507061815 52 348 0.0 0.0 0.00 0.00 0.00 86 1007.5
20260507061313 52 12 0.0 0.0 0.00 0.00 0.00 83 1007.9
20260507060811 52 359 0.0 0.0 0.00 0.00 0.00 84 1007.9
20260507060308 52 350 0.0 0.0 0.00 0.00 0.00 85 1008.1
20260507055804 52 30 0.9 0.9 0.00 0.00 0.00 85 1008.0
20260507055259 52 17 0.0 0.9 0.00 0.00 0.00 84 1007.9
20260507054756 52 88 0.0 0.9 0.00 0.00 0.00 83 1008.0
20260507054253 52 184 1.7 1.7 0.00 0.00 0.00 84 1007.9
20260507053750 52 81 1.7 1.7 0.00 0.00 0.00 83 1008.1
20260507053247 52 195 1.7 1.7 0.00 0.00 0.00 87 1008.1
20260507052746 52 92 0.9 0.9 0.00 0.00 0.00 85 1007.8
20260507052242 52 184 0.9 1.7 0.00 0.00 0.00 84 1007.9
20260507051741 52 12 0.0 0.9 0.00 0.00 0.00 84 1008.0
20260507051237 52 2 0.0 0.0 0.00 0.00 0.00 85 1007.8
20260507050733 52 50 0.0 0.9 0.00 0.00 0.00 86 1007.8
20260507050231 52 68 1.7 1.7 0.00 0.00 0.00 85 1007.5
20260507045727 52 351 0.0 0.0 0.00 0.00 0.00 87 1007.8
20260507045224 52 2 0.0 0.0 0.00 0.00 0.00 87 1007.8
20260507044721 52 352 0.0 0.0 0.00 0.00 0.00 86 1007.5
20260507044217 52 355 0.0 0.0 0.00 0.00 0.00 87 1007.9
20260507043714 52 346 0.9 0.9 0.00 0.00 0.00 86 1007.8
20260507043211 52 333 0.9 0.9 0.00 0.00 0.00 86 1007.6
20260507042707 52 320 0.9 1.7 0.00 0.00 0.00 86 1007.9
20260507042202 52 350 0.0 0.9 0.00 0.00 0.00 85 1007.8
20260507041659 52 341 0.9 0.9 0.00 0.00 0.00 85 1008.0
20260507041156 52 6 0.9 0.9 0.00 0.00 0.00 86 1007.6
20260507040653 52 291 1.7 1.7 0.00 0.00 0.00 86 1008.0
20260507040149 52 12 0.9 1.7 0.00 0.00 0.00 88 1007.3
20260507035645 52 7 0.9 1.7 0.00 0.07 0.07 87 1007.3
20260507035141 52 4 0.0 0.9 0.00 0.07 0.07 86 1007.6
20260507034638 53 333 0.9 0.9 0.00 0.07 0.07 87 1008.0
20260507034136 53 355 0.0 0.0 0.00 0.07 0.07 87 1008.2
20260507033634 53 350 0.9 0.9 0.00 0.07 0.07 88 1008.4
20260507033131 53 349 0.0 0.9 0.00 0.07 0.07 88 1008.0
20260507032629 53 3 0.0 0.0 0.00 0.07 0.07 88 1006.9
20260507032124 53 14 0.9 0.9 0.00 0.07 0.07 89 1007.5
20260507031621 53 359 0.0 0.9 0.00 0.07 0.07 89 1007.5
20260507031113 54 48 0.0 0.0 0.00 0.07 0.07 89 1007.5
20260507030609 54 355 0.0 0.0 0.00 0.07 0.07 89 1008.0
20260507030107 54 22 1.7 1.7 0.00 0.07 0.07 89 1008.1
20260507025604 54 343 0.9 0.9 0.00 0.07 0.07 89 1007.9
20260507025101 54 319 3.5 5.2 0.00 0.07 0.07 89 1007.8
20260507024559 54 358 0.0 0.0 0.00 0.07 0.07 89 1007.6
20260507024056 54 5 0.9 1.7 0.00 0.07 0.07 89 1007.8
20260507023551 54 350 1.7 1.7 0.00 0.07 0.07 89 1007.9
20260507023049 55 354 0.9 0.9 0.00 0.07 0.07 88 1007.6
20260507022545 55 7 0.9 0.9 0.00 0.07 0.07 88 1007.3
20260507022040 55 9 0.0 0.0 0.00 0.07 0.07 87 1007.1
20260507021537 55 31 0.0 0.9 0.00 0.07 0.07 87 1007.3
20260507021033 55 6 0.0 0.9 0.00 0.07 0.07 87 1007.0
20260507020531 55 4 0.0 0.9 0.00 0.07 0.07 87 1007.2
20260507020027 55 5 0.0 0.9 0.00 0.07 0.07 87 1007.2
20260507015526 55 306 2.6 2.6 0.00 0.07 0.07 87 1007.2
20260507015023 55 353 0.0 0.0 0.00 0.07 0.07 87 1006.9
20260507014519 55 344 0.9 0.9 0.00 0.07 0.07 87 1007.0
20260507014015 55 8 0.9 1.7 0.00 0.07 0.07 86 1006.9
20260507013512 55 13 0.0 0.9 0.00 0.07 0.07 87 1007.2
20260507013009 55 5 0.9 0.9 0.00 0.07 0.07 88 1006.8
20260507012506 56 125 0.9 1.7 0.00 0.07 0.07 86 1007.1
20260507012002 55 4 0.9 0.9 0.00 0.07 0.07 87 1007.1
20260507011500 56 358 0.0 0.0 0.00 0.07 0.07 88 1007.1
20260507010955 56 3 0.9 0.9 0.00 0.07 0.07 86 1007.2
20260507010450 56 2 0.0 0.0 0.00 0.07 0.07 87 1006.7
20260507005947 56 338 1.7 1.7 0.00 0.07 0.07 87 1006.7
20260507005444 56 6 0.0 0.9 0.00 0.07 0.07 89 1006.4
20260507004941 56 352 0.0 0.0 0.00 0.07 0.07 87 1006.6
20260507004437 57 7 0.0 0.9 0.00 0.07 0.07 87 1006.5
20260507003935 57 332 0.0 0.0 0.00 0.07 0.07 86 1006.5
20260507003430 57 351 0.9 1.7 0.00 0.07 0.07 85 1006.7
20260507002925 57 340 2.6 3.5 0.00 0.07 0.07 85 1007.1
20260507002422 57 283 0.9 1.7 0.00 0.07 0.07 86 1007.0
20260507001919 57 4 0.0 0.0 0.00 0.07 0.07 86 1007.1
20260507001416 57 339 0.9 0.9 0.00 0.07 0.07 85 1006.9
20260507000914 58 342 1.7 1.7 0.00 0.07 0.07 85 1006.7
20260507000408 58 27 0.9 1.7 0.00 0.07 0.07 85 1006.4
20260506235904 58 0 2.6 3.5 0.00 0.07 0.07 85 1006.7
20260506235402 58 331 1.7 1.7 0.00 0.07 0.07 86 1006.7
20260506234857 58 346 0.9 0.9 0.00 0.07 0.07 86 1006.8
20260506234355 58 5 0.9 1.7 0.00 0.07 0.07 87 1006.5
20260506233853 58 337 0.9 1.7 0.00 0.07 0.07 87 1006.5
20260506233348 58 12 0.9 1.7 0.00 0.07 0.07 88 1006.6
20260506232846 58 359 1.7 2.6 0.00 0.07 0.07 87 1006.2
20260506232342 58 301 4.3 6.1 0.00 0.07 0.07 87 1006.3
20260506231838 58 9 0.9 1.7 0.00 0.07 0.07 89 1006.0
20260506231336 58 326 1.7 2.6 0.00 0.07 0.07 90 1005.9
20260506230833 59 359 0.9 1.7 0.00 0.07 0.07 90 1005.5
20260506230330 59 331 0.9 0.9 0.00 0.07 0.07 91 1005.8
20260506225826 59 335 0.0 0.9 0.00 0.07 0.07 92 1005.6
20260506225323 59 314 3.5 3.5 0.00 0.07 0.07 90 1005.7
20260506224820 60 333 2.6 2.6 0.00 0.07 0.07 91 1005.9
20260506224317 60 287 5.2 7.0 0.00 0.07 0.07 90 1005.8
20260506223814 60 320 1.7 1.7 0.00 0.07 0.07 90 1005.8
20260506223309 60 308 2.6 3.5 0.00 0.07 0.07 90 1005.4
20260506222806 60 303 3.5 5.2 0.00 0.07 0.07 91 1005.5
20260506222305 60 315 1.7 1.7 0.07 0.07 0.07 93 1005.6
20260506221755 60 308 1.7 1.7 0.07 0.07 0.07 92 1005.4